When you browse on this site, cookies collect data to enhance your experience and personalize the content and advertising you see.
Visit our Privacy Policy to learn more. By continuing to use the site, you agree to this use of cookies and data.
  • In Spain
  • List of Countries
  • For 7 days
  • Water Temperature
  • Weather Map
  • Weather Widgets
  • user-avatar
    Login

    Hourly Weather Aden

    Today, 4 June, Thursday

    Time Temperature Precipitation Wind Pressure Humidity
    00:00 +35°C° 0 mm 5 mps 754 mmHg 62%
    01:00 +35°C° 1.6 mm 5 mps 754 mmHg 62%
    02:00 +34°C° 1.6 mm 4 mps 753 mmHg 62%
    03:00 +34°C° 1.6 mm 4 mps 753 mmHg 62%
    04:00 +33°C° 2.4 mm 4 mps 754 mmHg 66%
    05:00 +32°C° 2.4 mm 4 mps 754 mmHg 71%
    06:00 +30°C° 2.4 mm 5 mps 755 mmHg 75%
    07:00 +30°C° 1.8 mm 5 mps 755 mmHg 73%
    08:00 +30°C° 1.8 mm 5 mps 755 mmHg 70%
    09:00 +30°C° 1.8 mm 5 mps 755 mmHg 68%
    10:00 +33°C° 0 mm 5 mps 755 mmHg 61%
    11:00 +35°C° 0 mm 6 mps 755 mmHg 54%
    12:00 +36°C° 0 mm 6 mps 755 mmHg 47%
    13:00 +36°C° 0 mm 6 mps 754 mmHg 47%
    14:00 +36°C° 0 mm 6 mps 754 mmHg 47%
    15:00 +36°C° 0 mm 5 mps 753 mmHg 48%
    16:00 +36°C° 0 mm 5 mps 753 mmHg 47%
    17:00 +36°C° 0 mm 5 mps 753 mmHg 47%
    18:00 +36°C° 0 mm 4 mps 754 mmHg 47%
    19:00 +36°C° 0 mm 4 mps 754 mmHg 49%
    20:00 +36°C° 0 mm 4 mps 755 mmHg 51%
    21:00 +35°C° 0 mm 3 mps 755 mmHg 53%
    22:00 +35°C° 0 mm 4 mps 755 mmHg 55%
    23:00 +35°C° 0 mm 4 mps 755 mmHg 58%

    Tomorrow, 5 June, Friday

    Time Temperature Precipitation Wind Pressure Humidity
    00:00 +34°C° 0 mm 4 mps 755 mmHg 61%
    01:00 +34°C° 0.3 mm 4 mps 755 mmHg 62%
    02:00 +34°C° 0.3 mm 4 mps 754 mmHg 62%
    03:00 +34°C° 0.3 mm 3 mps 754 mmHg 63%
    04:00 +34°C° 0.3 mm 3 mps 755 mmHg 62%
    05:00 +34°C° 0.3 mm 3 mps 755 mmHg 61%
    06:00 +34°C° 0.3 mm 3 mps 756 mmHg 60%
    07:00 +35°C° 0 mm 3 mps 756 mmHg 56%
    08:00 +35°C° 0 mm 3 mps 756 mmHg 52%
    09:00 +36°C° 0 mm 4 mps 756 mmHg 47%
    10:00 +37°C° 0 mm 3 mps 756 mmHg 45%
    11:00 +37°C° 0 mm 3 mps 756 mmHg 42%
    12:00 +38°C° 0 mm 2 mps 756 mmHg 39%
    13:00 +38°C° 0 mm 2 mps 755 mmHg 40%
    14:00 +38°C° 0 mm 2 mps 754 mmHg 41%
    15:00 +38°C° 0 mm 2 mps 754 mmHg 41%
    16:00 +37°C° 0 mm 2 mps 754 mmHg 42%
    17:00 +37°C° 0 mm 2 mps 754 mmHg 42%
    18:00 +37°C° 0 mm 2 mps 754 mmHg 42%
    19:00 +37°C° 0 mm 2 mps 754 mmHg 45%
    20:00 +35°C° 0 mm 1 mps 754 mmHg 47%
    21:00 +35°C° 0 mm 1 mps 755 mmHg 50%
    22:00 +35°C° 0 mm 1 mps 755 mmHg 51%
    23:00 +35°C° 0 mm 1 mps 755 mmHg 51%

    Day after tomorrow, 6 June, Saturday

    Time Temperature Precipitation Wind Pressure Humidity
    00:00 +35°C° 0 mm 1 mps 755 mmHg 52%
    01:00 +35°C° 0 mm 2 mps 754 mmHg 52%
    02:00 +35°C° 0 mm 3 mps 754 mmHg 52%
    03:00 +35°C° 0 mm 4 mps 754 mmHg 52%
    04:00 +35°C° 0 mm 4 mps 754 mmHg 55%
    05:00 +34°C° 0 mm 4 mps 755 mmHg 58%
    06:00 +34°C° 0 mm 3 mps 755 mmHg 62%
    07:00 +35°C° 0 mm 3 mps 755 mmHg 55%
    08:00 +36°C° 0 mm 2 mps 756 mmHg 49%
    09:00 +38°C° 0 mm 2 mps 756 mmHg 43%
    10:00 +39°C° 0 mm 3 mps 755 mmHg 39%
    11:00 +40°C° 0 mm 3 mps 755 mmHg 35%
    12:00 +42°C° 0 mm 4 mps 755 mmHg 32%
    13:00 +42°C° 0 mm 5 mps 754 mmHg 32%
    14:00 +43°C° 0 mm 5 mps 753 mmHg 33%
    15:00 +44°C° 0 mm 6 mps 753 mmHg 34%
    16:00 +42°C° 0 mm 5 mps 753 mmHg 36%
    17:00 +41°C° 0 mm 4 mps 753 mmHg 38%
    18:00 +40°C° 0 mm 4 mps 753 mmHg 40%
    19:00 +38°C° 0 mm 3 mps 753 mmHg 41%
    20:00 +38°C° 0 mm 3 mps 753 mmHg 43%
    21:00 +37°C° 0 mm 2 mps 753 mmHg 44%
    22:00 +37°C° 0 mm 2 mps 753 mmHg 45%
    23:00 +37°C° 0 mm 2 mps 753 mmHg 46%

    7 June, Sunday

    Time Temperature Precipitation Wind Pressure Humidity
    00:00 +36°C° 0 mm 2 mps 753 mmHg 47%
    01:00 +36°C° 0 mm 3 mps 752 mmHg 48%
    02:00 +36°C° 0 mm 4 mps 752 mmHg 49%
    03:00 +36°C° 0 mm 6 mps 751 mmHg 50%
    04:00 +35°C° 0 mm 5 mps 752 mmHg 56%
    05:00 +35°C° 0 mm 5 mps 752 mmHg 62%
    06:00 +34°C° 0 mm 5 mps 753 mmHg 68%
    07:00 +35°C° 0 mm 6 mps 753 mmHg 62%
    08:00 +38°C° 0 mm 7 mps 753 mmHg 56%
    09:00 +39°C° 0 mm 9 mps 754 mmHg 50%
    10:00 +41°C° 0 mm 8 mps 754 mmHg 44%
    11:00 +43°C° 0 mm 8 mps 753 mmHg 39%
    12:00 +45°C° 0 mm 7 mps 753 mmHg 33%
    13:00 +45°C° 0 mm 8 mps 752 mmHg 32%
    14:00 +45°C° 0 mm 8 mps 752 mmHg 31%
    15:00 +45°C° 0 mm 9 mps 751 mmHg 30%
    16:00 +45°C° 0 mm 8 mps 751 mmHg 30%
    17:00 +45°C° 0 mm 8 mps 751 mmHg 30%
    18:00 +44°C° 0 mm 7 mps 751 mmHg 30%
    19:00 +42°C° 0 mm 6 mps 751 mmHg 33%
    20:00 +42°C° 0 mm 5 mps 751 mmHg 37%
    21:00 +41°C° 0 mm 4 mps 752 mmHg 41%
    22:00 +40°C° 0 mm 4 mps 752 mmHg 44%
    23:00 +38°C° 0 mm 4 mps 751 mmHg 47%

    8 June, Monday

    Time Temperature Precipitation Wind Pressure Humidity
    00:00 +37°C° 0 mm 3 mps 751 mmHg 51%
    01:00 +37°C° 0 mm 5 mps 751 mmHg 53%
    02:00 +38°C° 0 mm 6 mps 751 mmHg 56%
    03:00 +37°C° 0 mm 8 mps 750 mmHg 58%
    04:00 +36°C° 0 mm 7 mps 751 mmHg 58%
    05:00 +36°C° 0 mm 6 mps 751 mmHg 58%
    06:00 +36°C° 0 mm 5 mps 751 mmHg 58%
    07:00 +38°C° 0 mm 6 mps 752 mmHg 56%
    08:00 +38°C° 0 mm 7 mps 752 mmHg 54%
    09:00 +39°C° 0 mm 8 mps 752 mmHg 52%
    10:00 +41°C° 0 mm 8 mps 752 mmHg 46%
    11:00 +43°C° 0 mm 8 mps 751 mmHg 40%
    12:00 +45°C° 0 mm 8 mps 751 mmHg 35%
    13:00 +45°C° 0 mm 8 mps 750 mmHg 34%
    14:00 +45°C° 0 mm 8 mps 750 mmHg 34%
    15:00 +45°C° 0 mm 8 mps 750 mmHg 33%
    16:00 +45°C° 0 mm 7 mps 749 mmHg 33%
    17:00 +45°C° 0 mm 6 mps 749 mmHg 32%
    18:00 +45°C° 0 mm 5 mps 749 mmHg 31%
    19:00 +43°C° 0 mm 5 mps 750 mmHg 35%
    20:00 +42°C° 0 mm 4 mps 750 mmHg 38%
    21:00 +41°C° 0 mm 4 mps 750 mmHg 42%
    22:00 +40°C° 0 mm 5 mps 750 mmHg 42%
    23:00 +40°C° 0 mm 5 mps 750 mmHg 43%

    9 June, Tuesday

    Time Temperature Precipitation Wind Pressure Humidity
    00:00 +40°C° 0 mm 6 mps 750 mmHg 43%
    01:00 +39°C° 0 mm 7 mps 750 mmHg 49%
    02:00 +38°C° 0 mm 8 mps 750 mmHg 55%
    03:00 +37°C° 0 mm 9 mps 750 mmHg 61%
    04:00 +37°C° 0 mm 8 mps 750 mmHg 63%
    05:00 +35°C° 0 mm 7 mps 751 mmHg 65%
    06:00 +35°C° 0 mm 5 mps 751 mmHg 67%
    07:00 +36°C° 0 mm 5 mps 752 mmHg 62%
    08:00 +37°C° 0 mm 5 mps 752 mmHg 58%
    09:00 +37°C° 0 mm 4 mps 752 mmHg 54%
    10:00 +39°C° 0 mm 5 mps 752 mmHg 51%
    11:00 +40°C° 0 mm 5 mps 752 mmHg 48%
    12:00 +41°C° 0 mm 6 mps 751 mmHg 46%
    13:00 +42°C° 0 mm 5 mps 751 mmHg 42%
    14:00 +43°C° 0 mm 5 mps 751 mmHg 38%
    15:00 +44°C° 0 mm 4 mps 750 mmHg 35%
    16:00 +43°C° 0 mm 4 mps 750 mmHg 36%
    17:00 +42°C° 0 mm 4 mps 750 mmHg 37%
    18:00 +41°C° 0 mm 4 mps 750 mmHg 39%
    19:00 +40°C° 0 mm 4 mps 750 mmHg 42%
    20:00 +39°C° 0 mm 3 mps 750 mmHg 45%
    21:00 +38°C° 0 mm 3 mps 751 mmHg 48%
    22:00 +37°C° 0 mm 4 mps 751 mmHg 51%
    23:00 +37°C° 0 mm 4 mps 751 mmHg 54%
    Show more